Probability
0 0 0 0 0 0 0 0 0 0 0 0 0 0 0 0 0 0 0 0 0 0 0 0 0 0 0 0 0 0 0 0 0 0 0 0 0 0
0 0 0 0 0 0 0 0 0 0 0 0 0 0 0 0 0 0 0 0 0 0 0 0 0 0 0 0 0 0 0 0 0 0 0 0 0 0
0 0 0 0 0 0 0 0 0 0 0 0 0 0 0 0 0 0 0 0 0 0 0 0 0 0 0 0 0 0 0 0 0 0 0 0 0 0
0 0 0 0 0 0 0 0 0 0 0 0 0 0 0 0 0 0 0 0 0 0 0 0 0 0 0 0 0 0 0 0 0 0 0 0 0 0
0 0 0 0 0 0 0 0 0 0 0 0 0 0 0 0 0 0 0 0 0 0 0 0 0 0 0 0 0 0 0 0 0 0 0 0 0 0
0 0 0 0 0 0 0 0 0 0 0 0 0 0 0 0 0 0 0 0 0 0 0 0 0 0 0 0 0 0 0 0 0 0 0 0 0 0
0 0 0 0 0 0 0 0 0 0 0 0 0 0 0 0 0 0 0 0 0 0 0 0 0 0 0 0 0 0 0 0 0 0 0 0 0 0
0 0 0 0 0 0 0 0 0 0 0 0 0 0 0 0 0 0 0 0 0 0 0 0 0 0 0 0 0 0 0 0 0 0 0 0 0 0
0 0 0 0 0 0 0 0 0 0 0 0 0 0 0 0 0 0 0 0 0 0 0 0 0 0 0 0 0 0 0 0 0 0 0 0 0 0
0 0 0 0 0 0 0 0 0 0 0 0 0 0 0 0 0 0 0 0 0 0 0 0 0 0 0 0 0 0 0 0 0 0 0 0 0 0
0 0 0 0 0 0 0 0 0 0 0 0 0 0 0 0 0 0 0 0 0 0 0 0 0 0 0 0 0 0 0 0 0 0 0 0 0 0
0 0 0 0 0 0 0 0 0 0 0 0 0 0 0 0 0 0 0 0 0 0 0 0 0 0 0 0 0 0 0 0 0 0 0 0 0 0
0 0 0 0 0 0 0 0 0 0 0 0 0 0 0 0 0 0 0 0 0 0 0 0 0 0 0 0 0 0 0 0 0 0 0 0 0 0
0 0 0 0 0 0 0 0 0 0 0 0 0 0 0 0 0 0 0 0 0 0 0 0 0 0 0 0 0 0 0 0 0 0 0 0 0 0
0 0 0 0 0 0 0 0 0 0 0 0 0 0 0 0 0 0 0 0 0 0 0 0 0 0 0 0 0 0 0 0 0 0 0 0 0 0
0 0 0 0 0 0 0 0 0 0 0 0 0 0 0 0 0 0 0 0 0 0 0 0 0 0 0 0 0 0 0 0 0 0 0 0 0 0
0 0 0 0 0 0 0 0 0 0 0 0 0 0 0 0 0 0 0 0 0 0 0 0 0 0 0 0 0 0 0 0 0 0 0 0 0 0
0 0 0 0 0 0 0 0 0 0 0 0 0 0 0 0 0 0 0 0 0 0 0 0 0 0 0 0 0 0 0 0 0 0 0 0 0 0
0 0 0 0 0 0 0 0 0 0 0 0 0 0 0 0 0 0 0 0 0 0 0 0 0 0 0 0 0 0 0 0 0 0 0 0 0 0
0 0 0 0 0 0 0 0 0 0 0 0 0 0 0 0 0 0 0 0 0 0 0 0 0 0 0 0 0 0 0 0 0 0 0 0 0 0
0 0 0 0 0 0 0 0 0 0 0 0 0 0 0 0 0 0 0 0 0 0 0 0 0 0 0 0 0 0 0 0 0 0 0 0 0 0
0 0 0 0 0 0 0 0 0 0 0 0 0 0 0 0 0 0 0 0 0 0 0 0 0 0 0 0 0 0 0 0 0 0 0 0 0 0
0 0 0 0 0 0 0 0 0 0 0 0 0 0 0 0 0 0 0 0 0 0 0 0 0 0 0 0 0 0 0 0 0 0 0 0 0 0
Wind_Speed
4 5 5 5 5 6 7 8 10 14 14 12 8 9 10 11 15 15 17 23 27 29 31 31 31 32 32 32 32 32 33 33 33 33 33 34 34 35
4 6 6 5 6 7 7 8 9 13 15 10 12 13 14 13 18 18 18 25 27 28 29 30 31 32 33 33 33 33 33 33 33 34 34 34 35 35
5 6 7 8 7 7 8 9 10 11 16 15 12 14 17 18 16 16 16 16 16 25 28 30 31 32 33 33 33 33 33 33 33 34 34 34 34 35
7 7 8 7 10 9 8 10 10 12 15 19 15 14 18 18 18 17 15 14 15 23 28 30 31 31 32 32 32 33 33 33 33 33 34 34 34 35
8 8 9 10 11 10 11 11 11 11 13 15 17 15 14 14 17 16 18 15 15 18 24 26 28 30 31 32 33 33 33 33 33 33 33 33 34 34
8 8 9 10 12 12 11 13 13 14 14 15 15 15 14 16 15 15 15 14 14 14 19 21 24 28 30 31 31 32 32 32 32 32 32 32 33 33
9 9 10 12 15 14 12 13 14 13 13 14 15 15 15 15 15 14 15 15 15 14 15 14 15 15 17 22 26 28 29 30 31 31 32 32 33 33
10 10 11 12 14 18 20 20 20 17 16 15 14 16 19 18 15 14 15 16 17 12 14 16 15 16 15 15 22 29 31 32 32 32 33 33 33 33
11 11 10 10 15 13 17 20 20 23 22 18 18 18 19 17 18 19 17 18 18 15 16 18 15 16 15 16 27 31 32 32 32 32 32 32 33 33
11 12 13 13 13 16 17 17 17 16 18 15 16 17 17 18 18 18 18 18 18 15 15 17 16 16 16 15 25 30 31 30 30 31 31 32 32 33
11 12 13 14 18 21 18 17 18 16 16 19 22 23 27 27 21 14 14 14 15 15 13 13 14 16 16 16 17 24 26 28 29 30 31 31 31 31
10 12 15 16 19 22 17 16 17 16 15 16 17 18 17 17 19 14 11 12 14 12 9 9 12 13 12 10 11 13 16 22 27 28 28 29 29 20
10 10 10 18 22 24 21 16 17 18 16 15 14 13 12 11 11 11 10 10 13 13 12 11 11 12 12 14 14 14 14 14 14 17 21 26 28 23
11 10 12 21 24 24 18 17 21 19 11 10 11 11 11 11 11 12 14 14 14 17 18 16 13 14 15 17 17 14 14 14 14 14 13 19 23 27
11 17 21 23 21 16 15 19 16 10 9 10 11 11 11 12 12 12 14 14 16 16 15 17 15 14 14 16 17 17 17 15 12 11 13 13 13 12
11 15 20 18 15 15 14 11 8 9 10 10 11 11 11 11 11 11 11 11 12 13 12 13 14 16 15 17 16 16 15 12 13 14 14 13 11 10
14 11 10 9 9 9 9 9 9 9 9 9 10 11 11 11 11 10 10 11 12 14 14 12 11 12 15 16 15 14 13 13 13 14 13 13 10 8
14 9 9 9 9 10 10 11 10 10 10 10 10 11 11 11 12 11 10 11 12 12 13 13 13 13 11 9 11 12 11 12 13 14 12 12 10 7
9 7 8 9 9 10 10 10 11 11 10 10 11 11 11 11 11 11 11 11 11 12 12 12 12 11 13 14 9 6 10 13 13 13 11 11 10 8
7 8 9 9 9 10 10 10 11 11 10 10 10 11 10 11 11 11 11 12 12 13 13 11 10 10 11 11 11 12 13 12 12 12 11 10 8 8
8 9 9 9 10 10 10 10 11 11 11 11 11 11 10 10 11 11 11 15 14 11 12 12 12 17 12 9 10 10 10 12 14 12 11 10 9 8
9 9 10 10 10 10 10 10 11 11 12 11 11 10 10 10 11 13 11 11 11 11 13 12 12 11 9 9 11 13 12 12 13 14 13 15 10 9
10 10 10 11 10 10 10 11 13 11 11 11 11 11 10 10 10 10 11 11 10 11 12 11 10 9 9 9 10 11 13 13 11 10 9 17 20 18
Wind_Direction
289 288 285 287 285 284 285 286 292 298 300 301 297 298 297 295 294 292 291 292 293 293 292 293 293 293 292 291 290 288 286 284 281 279 276 274 271 269
292 292 295 293 292 288 285 284 282 286 290 295 300 300 302 295 292 292 291 292 290 289 290 290 291 291 291 290 289 287 285 282 280 277 275 273 270 268
291 294 297 299 295 292 290 286 283 284 288 294 298 301 300 297 297 296 293 292 290 291 292 292 291 291 290 289 287 286 285 283 281 279 277 275 272 270
299 298 297 299 295 294 291 289 288 287 289 295 299 299 299 300 298 297 297 293 291 293 293 292 292 290 289 288 287 285 283 282 280 278 277 274 273 271
297 296 298 300 298 297 296 292 290 289 288 291 296 298 297 299 301 299 298 296 296 294 294 292 290 289 288 287 286 285 284 282 281 278 276 274 272 271
292 290 293 296 298 300 296 294 293 294 293 292 294 298 299 303 303 304 303 301 298 297 292 290 289 289 287 286 285 284 282 281 279 277 275 272 270 268
293 290 290 293 294 295 294 296 299 296 294 293 295 299 301 306 305 305 302 302 297 297 295 294 294 290 289 286 283 281 280 279 278 276 274 271 267 265
297 297 296 293 294 297 297 297 294 292 293 294 296 298 299 301 304 303 301 301 300 303 300 296 294 289 287 284 284 285 284 282 280 277 275 271 268 264
298 298 298 298 301 299 299 296 293 291 290 291 293 293 297 300 301 300 298 297 296 299 298 292 293 290 290 287 288 287 286 284 281 279 275 272 268 265
296 298 300 301 303 305 303 299 297 295 293 292 289 290 291 293 293 294 296 294 290 288 288 291 295 293 294 292 291 288 286 284 282 279 277 273 270 266
299 298 299 298 303 306 305 302 301 299 298 296 291 288 289 292 293 293 291 292 293 295 295 287 292 299 295 289 286 288 288 287 285 282 279 275 272 268
302 300 298 302 306 308 307 305 303 305 307 302 296 293 292 291 290 284 284 287 291 295 292 294 298 307 300 285 291 296 294 290 288 285 283 278 274 269
304 304 303 308 309 310 310 304 302 305 302 299 299 298 297 295 295 294 290 283 283 280 286 297 292 292 285 291 297 294 290 291 293 290 286 281 276 269
304 304 306 309 311 312 310 305 306 306 299 299 298 298 300 301 300 299 293 285 273 274 280 283 279 281 284 286 292 294 295 293 290 287 284 283 279 272
303 305 307 310 313 311 306 308 309 302 299 298 297 297 299 298 297 296 294 289 284 277 273 272 271 274 275 280 285 291 297 297 290 290 291 287 281 275
311 308 309 309 308 304 306 307 303 297 300 297 297 297 298 297 296 298 299 303 298 296 286 276 274 275 277 279 281 287 291 291 297 299 297 292 286 273
315 307 306 310 311 312 310 308 307 306 305 300 298 298 299 299 299 300 298 298 294 298 305 304 293 283 275 275 280 282 290 297 300 304 305 300 296 289
316 305 308 311 311 312 311 310 309 307 305 302 299 297 297 299 300 300 298 296 296 298 301 305 309 308 303 281 251 274 293 303 309 309 307 307 305 303
311 306 306 306 306 304 303 302 302 303 303 298 295 296 296 296 296 298 299 299 298 299 300 303 306 310 315 317 301 276 301 311 314 315 315 314 311 314
311 306 304 304 303 301 300 299 299 301 300 298 296 294 294 294 295 296 297 299 300 301 303 305 307 312 311 301 297 300 305 313 320 319 320 316 311 312
310 306 303 301 299 297 296 296 296 296 296 296 294 293 293 293 292 293 295 298 300 301 305 307 305 308 301 290 295 306 315 322 322 324 328 327 329 333
307 304 301 298 297 295 295 295 295 294 295 293 293 293 292 290 291 293 295 298 300 301 303 303 306 310 310 307 313 316 322 328 328 331 342 355 348 342
305 302 299 298 295 294 293 293 293 292 292 291 291 291 292 292 291 291 293 295 299 303 308 311 315 317 315 311 314 319 328 335 337 340 345 350 355 359